CHINASAT 2D (ZX 2D)

Last updated on Sat Jun 29 2024 00:02:40 GMT+0000 (Coordinated Universal Time)

1 43920U 19001A 24180.61093547 -.00000334 00000+0 00000+0 0 9998 2 43920 0.0447 126.7694 0002020 126.8259 13.5333 1.00270029 46871
UTC large
Height (km)
Speed (km/s)
/
Latitude / Longitude
Inclination (degrees)
Orbital Period (minutes)
Azimuth
Elevation
Range (km)
Doppler Factor

Next 0 passes for location: London (51.5072 / 0.1276)

Sorry there are no passes over London.